SCP
0 0 0 0 0 0 0 0 0 0 0 0 0 0 0 0 0 0 0 0 0 0
0 0 0 0 0 0 0 0 0 0 0 0 0 0 0 0 0 0 0 0 0 0
0 0 0 0 0 0 0 0 0 0 0 0 0 0 0 0 0 0 0 0 0 0
0 0 0 0 0 0 0 0 0 0 0 0 0 0 0 0 0 0 0 0 0 0
0 0 0 0 0 0 0 0 0 0 0 0 0 0 0 0 0 0 0 0 0 0
0 0 0 0 0 0 0 0 0 0 0 0 0 0 0 0 0 0 0 0 0 0
0 0 0 0 0 0 0 0 0 0 0 0 0 0 0 0 0 0 0 0 0 0
0 0 0 0 0 0 0 0 0 0 0 0 0 0 0 0 0 0 0 0 0 0
0 0 0 0 0 0 0 0 0 0 0 0 0 0 0 0 0 0 0 0 0 0
0 0 0 0 0 0 0 0 0 0 0 0 0 0 0 0 0 0 0 0 0 0
0 0 0 0 0 0 0 0 0 0 0 0 0 0 0 0 0 0 0 0 0 0
0 0 0 0 0 0 0 0 0 0 -0 0 0 0 0 0 0 0 -0 -0 0 0
0 0 0 0 0 0 0 0 0 0 -0 -0 0 0 -0 -0 -0 -0 0 0 0 0
0 0 0 0 0 0 0 0 0 0 -0 -0 0 -0 0 -0 0 0 0 0 0 0
Wind_Speed_500mb
76 76 76 74 70 70 73 76 73 71 70 75 78 73 80 85 87 91 87 88 79 79
72 71 66 62 61 62 63 64 67 68 73 74 74 73 95 91 88 79 90 121 110 99
68 61 61 60 60 58 60 63 65 65 64 66 72 70 72 86 93 102 90 63 75 89
62 57 53 53 51 52 56 60 62 64 67 69 70 67 71 79 84 82 88 94 83 63
57 49 47 46 48 52 61 62 65 68 71 73 73 70 68 69 74 76 72 73 84 73
54 49 47 45 47 56 61 62 63 66 67 69 68 69 67 64 64 69 77 72 63 75
54 47 47 47 52 58 59 61 63 66 65 65 63 62 62 60 63 71 68 69 60 63
54 49 46 48 55 56 57 56 59 61 62 58 55 53 51 53 55 57 56 47 63 59
48 45 41 46 54 53 50 56 59 56 53 47 40 33 34 39 43 47 50 59 46 61
46 42 40 46 47 46 52 60 59 53 42 37 30 24 26 31 36 36 36 48 52 46
47 43 42 43 40 43 49 51 50 46 32 29 18 15 17 28 32 31 36 26 34 43
44 42 42 39 36 39 39 45 38 36 25 21 16 11 13 16 21 24 26 32 34 26
39 39 41 37 36 36 34 37 28 23 22 17 17 12 9 13 20 22 17 15 30 30
39 39 37 33 30 31 29 27 19 14 16 18 17 17 3 13 12 11 10 14 16 22
Wind_Direction_500mb
308 306 304 304 302 300 299 295 294 292 283 279 262 260 257 256 257 255 253 247 246 251
313 313 309 308 306 302 297 298 295 291 288 283 278 268 257 257 257 254 258 252 246 244
318 314 311 310 308 305 304 300 296 293 290 287 281 278 267 264 258 258 250 254 258 254
320 317 315 311 314 314 308 305 301 299 295 290 285 277 266 262 267 262 258 254 252 256
321 319 317 320 320 314 307 306 302 300 294 289 285 280 272 264 257 261 255 259 251 249
322 317 318 320 318 311 308 307 305 301 296 291 285 278 272 267 254 256 257 255 254 249
322 317 315 318 313 312 312 312 310 307 301 294 284 275 268 264 252 251 250 248 246 248
322 321 318 314 314 315 314 311 308 309 307 298 289 274 266 258 254 252 251 249 246 253
327 329 329 321 319 315 316 314 316 313 307 300 286 276 261 255 252 247 247 239 231 240
330 330 325 323 319 318 318 321 325 321 311 309 286 272 257 244 246 246 247 240 243 243
332 327 321 321 321 318 325 330 334 333 325 319 313 277 247 237 240 242 240 244 228 235
337 330 322 324 328 326 331 332 340 345 339 340 342 316 220 229 232 238 254 239 234 236
338 328 322 326 330 327 329 331 340 351 355 344 336 308 265 221 225 227 251 213 221 215
346 332 332 328 324 324 324 326 336 359 360 13 30 45 64 203 209 215 220 213 181 208
Wind_Speed_850mb
76 76 76 74 70 70 73 76 73 71 70 75 78 73 80 85 87 91 87 88 79 79
72 71 66 62 61 62 63 64 67 68 73 74 74 73 95 91 88 79 90 121 110 99
68 61 61 60 60 58 60 63 65 65 64 66 72 70 72 86 93 102 90 63 75 89
62 57 53 53 51 52 56 60 62 64 67 69 70 67 71 79 84 82 88 94 83 63
57 49 47 46 48 52 61 62 65 68 71 73 73 70 68 69 74 76 72 73 84 73
54 49 47 45 47 56 61 62 63 66 67 69 68 69 67 64 64 69 77 72 63 75
54 47 47 47 52 58 59 61 63 66 65 65 63 62 62 60 63 71 68 69 60 63
54 49 46 48 55 56 57 56 59 61 62 58 55 53 51 53 55 57 56 47 63 59
48 45 41 46 54 53 50 56 59 56 53 47 40 33 34 39 43 47 50 59 46 61
46 42 40 46 47 46 52 60 59 53 42 37 30 24 26 31 36 36 36 48 52 46
47 43 42 43 40 43 49 51 50 46 32 29 18 15 17 28 32 31 36 26 34 43
44 42 42 39 36 39 39 45 38 36 25 21 16 11 13 16 21 24 26 32 34 26
39 39 41 37 36 36 34 37 28 23 22 17 17 12 9 13 20 22 17 15 30 30
39 39 37 33 30 31 29 27 19 14 16 18 17 17 3 13 12 11 10 14 16 22
Wind_Direction_850mb
308 306 304 304 302 300 299 295 294 292 283 279 262 260 257 256 257 255 253 247 246 251
313 313 309 308 306 302 297 298 295 291 288 283 278 268 257 257 257 254 258 252 246 244
318 314 311 310 308 305 304 300 296 293 290 287 281 278 267 264 258 258 250 254 258 254
320 317 315 311 314 314 308 305 301 299 295 290 285 277 266 262 267 262 258 254 252 256
321 319 317 320 320 314 307 306 302 300 294 289 285 280 272 264 257 261 255 259 251 249
322 317 318 320 318 311 308 307 305 301 296 291 285 278 272 267 254 256 257 255 254 249
322 317 315 318 313 312 312 312 310 307 301 294 284 275 268 264 252 251 250 248 246 248
322 321 318 314 314 315 314 311 308 309 307 298 289 274 266 258 254 252 251 249 246 253
327 329 329 321 319 315 316 314 316 313 307 300 286 276 261 255 252 247 247 239 231 240
330 330 325 323 319 318 318 321 325 321 311 309 286 272 257 244 246 246 247 240 243 243
332 327 321 321 321 318 325 330 334 333 325 319 313 277 247 237 240 242 240 244 228 235
337 330 322 324 328 326 331 332 340 345 339 340 342 316 220 229 232 238 254 239 234 236
338 328 322 326 330 327 329 331 340 351 355 344 336 308 265 221 225 227 251 213 221 215
346 332 332 328 324 324 324 326 336 359 360 13 30 45 64 203 209 215 220 213 181 208